Temp
7 9 10 10 11 11 15 15 15 17 14 16 17 18 18 15 15 18 18 17 16 16 16 14 16 16 15 15 15 15 14 14 14 14 13 13 13 13 12 12 12 11 11 12
8 10 13 13 12 11 12 15 14 12 12 15 15 16 15 15 16 17 18 17 17 16 14 16 16 16 16 16 16 15 14 14 14 14 14 14 13 13 13 12 12 11 11 12
10 11 12 11 10 10 12 14 15 15 11 12 14 17 17 16 15 15 15 17 17 17 15 15 16 17 16 16 16 16 15 15 14 14 14 13 13 12 11 13 11 11 11 11
9 9 10 9 9 11 11 15 15 12 14 13 12 18 20 19 17 15 16 15 16 16 15 15 16 17 17 17 16 16 15 15 14 14 14 13 13 13 13 12 12 11 11 11
6 7 10 9 10 9 11 12 12 12 10 11 12 15 21 17 17 18 17 17 16 17 16 16 17 17 17 17 16 16 15 15 14 14 14 13 12 12 11 11 11 11 11 11
5 5 7 9 9 11 10 12 9 8 8 10 13 14 19 18 17 19 19 18 17 16 18 18 18 17 17 16 16 15 15 15 14 14 13 13 12 12 11 11 11 11 10 10
5 4 5 7 9 9 11 12 9 9 9 12 14 12 18 18 18 19 20 18 18 16 18 18 18 17 17 16 16 16 16 15 14 13 13 12 12 11 10 10 11 10 10 10
7 7 6 8 8 8 11 14 11 12 12 14 9 12 16 17 17 14 13 15 16 16 17 17 17 17 17 16 16 16 15 14 13 13 12 12 11 11 11 10 10 10 9 9
7 6 5 5 7 10 8 10 11 10 5 13 14 13 15 13 13 11 12 11 12 14 16 16 16 16 15 14 15 15 14 13 12 12 11 11 11 11 11 10 9 9 9 9
8 7 4 5 6 7 9 11 10 10 11 13 13 15 17 15 15 13 11 11 11 12 13 14 15 15 13 13 13 12 12 11 11 11 10 10 10 10 10 10 9 9 9 8
8 9 5 4 5 7 7 7 8 10 9 13 13 16 16 18 17 16 14 11 11 12 13 14 13 12 12 12 11 11 11 10 10 10 10 10 10 10 9 9 9 8 8 8
7 6 6 6 5 5 9 9 10 12 9 9 9 16 10 12 11 10 11 11 11 12 12 12 12 12 11 11 11 10 10 10 10 10 10 10 10 9 9 8 8 8 8 8
6 6 7 6 5 3 5 6 10 10 10 9 12 14 9 10 11 9 9 9 10 11 11 11 11 11 11 11 10 10 10 10 10 9 9 9 9 9 8 8 8 8 7 8
5 5 7 10 9 8 6 6 8 10 9 11 13 15 14 13 12 11 9 10 10 11 10 10 11 11 11 11 10 10 10 9 9 9 9 9 9 9 8 8 7 7 7 8
4 5 6 6 6 7 9 8 8 8 10 12 14 13 14 13 13 11 10 10 10 11 11 11 12 12 11 11 10 10 10 9 9 9 8 8 8 8 7 7 7 7 7 7
4 5 4 5 6 7 7 8 8 9 9 10 9 11 11 10 10 10 11 11 10 11 12 12 12 12 11 11 11 11 10 10 9 9 8 8 8 7 7 7 7 7 7 7
5 4 5 6 4 7 7 7 8 9 10 10 10 11 10 11 10 11 12 12 13 12 12 13 12 12 12 12 11 11 11 10 9 9 8 8 8 7 7 7 7 7 7 7
4 4 5 5 5 7 8 6 8 9 10 10 11 11 12 12 13 13 13 12 13 13 13 13 13 13 13 12 11 10 10 11 10 9 8 8 8 7 7 7 7 7 7 7
4 4 4 5 5 7 8 6 6 7 9 8 8 10 10 10 8 10 11 12 12 12 13 13 13 13 13 12 12 11 10 10 10 9 9 8 8 8 7 7 8 8 8 8
3 3 5 3 6 7 8 6 5 6 8 5 6 6 6 6 7 10 9 10 10 11 11 12 13 13 12 12 11 11 10 10 11 10 9 8 8 8 8 8 8 8 8 7
4 4 5 5 6 6 6 5 5 7 8 4 4 5 5 6 7 7 7 8 9 10 10 11 11 12 12 12 12 11 11 11 11 10 9 8 7 8 8 8 8 8 7 7
4 5 5 5 5 6 4 5 7 6 5 5 5 5 4 5 6 6 6 6 8 9 9 10 10 11 11 11 11 11 11 11 10 9 8 8 8 7 7 7 8 7 7 7
4 5 5 5 6 5 5 6 6 6 5 5 5 5 5 5 5 5 6 6 7 8 9 9 10 10 10 10 10 11 11 9 9 9 8 8 7 7 7 7 7 7 6 6
3 1 3 3 3 4 4 6 7 8 7 7 7 7 6 5 5 6 6 6 7 8 8 9 9 8 9 9 9 9 9 9 9 8 8 7 7 7 7 7 7 6 6 6
3 1 3 2 2 3 5 6 6 6 7 7 7 7 7 7 6 6 6 6 7 7 7 8 8 7 8 8 8 9 9 9 8 8 7 7 7 7 7 6 6 6 6 5
0 2 4 5 5 5 6 7 7 6 6 7 7 7 7 7 6 6 6 6 6 6 6 6 6 7 8 8 8 8 8 8 8 7 7 7 7 6 6 6 6 6 5 5
Height
1469 1478 1483 1486 1489 1491 1489 1494 1496 1497 1507 1510 1508 1505 1505 1509 1512 1513 1515 1519 1522 1524 1531 1533 1536 1541 1544 1548 1551 1553 1556 1559 1561 1563 1566 1568 1569 1571 1572 1573 1574 1574 1574 1573
1473 1467 1464 1476 1484 1492 1494 1485 1496 1506 1509 1511 1512 1506 1507 1507 1505 1506 1509 1514 1517 1522 1525 1527 1532 1536 1539 1543 1546 1548 1552 1555 1557 1561 1563 1564 1567 1567 1569 1570 1571 1571 1571 1571
1459 1460 1467 1477 1486 1493 1489 1483 1485 1497 1510 1515 1514 1505 1504 1502 1503 1504 1507 1509 1514 1515 1520 1523 1526 1530 1534 1537 1540 1543 1546 1549 1552 1556 1557 1560 1562 1563 1565 1567 1567 1568 1568 1569
1462 1465 1466 1474 1483 1486 1492 1484 1485 1497 1501 1513 1521 1499 1485 1492 1496 1498 1500 1504 1505 1509 1514 1518 1520 1524 1527 1530 1535 1538 1542 1544 1548 1550 1553 1555 1557 1559 1562 1564 1564 1565 1566 1567
1465 1467 1467 1476 1477 1486 1489 1482 1492 1499 1511 1514 1517 1516 1473 1488 1487 1487 1492 1495 1499 1502 1506 1510 1513 1518 1522 1526 1528 1533 1535 1538 1541 1544 1547 1549 1552 1556 1558 1560 1561 1562 1563 1563
1468 1470 1472 1473 1478 1482 1485 1486 1505 1515 1522 1522 1499 1505 1473 1476 1476 1478 1483 1486 1490 1495 1499 1504 1508 1513 1516 1519 1522 1525 1528 1531 1534 1538 1541 1544 1548 1550 1553 1556 1557 1559 1560 1561
1473 1477 1477 1475 1477 1485 1483 1484 1513 1519 1521 1498 1492 1505 1465 1464 1469 1469 1472 1477 1482 1487 1492 1496 1500 1504 1507 1511 1515 1519 1521 1524 1528 1532 1535 1539 1544 1546 1550 1552 1553 1555 1557 1558
1459 1476 1476 1472 1476 1483 1481 1472 1484 1489 1495 1488 1514 1488 1457 1461 1465 1470 1471 1473 1477 1479 1484 1488 1493 1497 1500 1505 1509 1513 1515 1518 1522 1526 1530 1535 1539 1543 1546 1548 1550 1552 1554 1555
1461 1473 1480 1480 1479 1477 1489 1482 1484 1490 1517 1487 1476 1472 1458 1461 1462 1466 1466 1471 1471 1472 1477 1481 1486 1490 1494 1499 1503 1507 1510 1514 1518 1522 1527 1531 1536 1540 1542 1545 1546 1548 1550 1552
1455 1470 1484 1482 1482 1485 1481 1481 1488 1489 1494 1481 1475 1467 1452 1455 1456 1458 1463 1466 1468 1470 1473 1476 1481 1484 1489 1493 1497 1501 1506 1511 1515 1520 1525 1529 1533 1536 1539 1541 1543 1545 1546 1548
1452 1455 1484 1485 1481 1478 1484 1484 1486 1481 1487 1471 1472 1452 1444 1444 1445 1447 1454 1461 1465 1469 1470 1473 1477 1481 1485 1488 1493 1498 1502 1506 1512 1517 1521 1525 1528 1531 1534 1537 1540 1542 1544 1545
1457 1466 1472 1478 1481 1480 1474 1474 1473 1467 1486 1487 1487 1451 1454 1453 1453 1452 1456 1459 1463 1468 1470 1471 1474 1477 1480 1485 1490 1495 1499 1504 1508 1513 1516 1520 1524 1527 1530 1533 1535 1537 1541 1543
1458 1465 1468 1476 1483 1485 1479 1478 1468 1469 1473 1479 1471 1455 1451 1454 1457 1456 1455 1458 1461 1465 1468 1469 1471 1474 1477 1482 1487 1492 1496 1501 1505 1507 1511 1515 1519 1522 1525 1528 1531 1533 1537 1541
1458 1463 1457 1449 1453 1458 1471 1472 1468 1466 1470 1464 1456 1449 1450 1453 1453 1453 1453 1455 1457 1462 1465 1467 1469 1472 1476 1479 1483 1488 1492 1496 1500 1504 1505 1510 1513 1517 1521 1524 1527 1530 1533 1536
1462 1460 1461 1462 1460 1458 1454 1458 1465 1465 1461 1459 1452 1454 1450 1452 1452 1453 1454 1454 1457 1458 1460 1465 1468 1470 1473 1476 1479 1483 1488 1492 1495 1498 1502 1505 1509 1513 1517 1520 1523 1527 1530 1533
1461 1463 1464 1467 1464 1460 1457 1455 1456 1456 1461 1460 1464 1458 1453 1454 1455 1454 1454 1455 1456 1458 1461 1462 1464 1467 1469 1472 1475 1480 1483 1487 1490 1493 1496 1500 1504 1508 1512 1516 1520 1524 1527 1530
1461 1467 1466 1463 1471 1462 1458 1453 1453 1454 1455 1456 1455 1454 1455 1454 1455 1454 1452 1452 1454 1457 1458 1459 1461 1463 1466 1468 1471 1476 1479 1482 1485 1488 1491 1495 1499 1504 1508 1512 1516 1520 1523 1526
1464 1467 1467 1469 1469 1459 1447 1449 1447 1446 1446 1449 1448 1450 1449 1449 1450 1449 1449 1450 1451 1454 1454 1456 1458 1459 1461 1465 1468 1472 1475 1478 1481 1483 1487 1491 1495 1500 1504 1508 1512 1517 1519 1521
1464 1466 1468 1464 1464 1453 1442 1446 1447 1446 1446 1449 1448 1446 1446 1449 1450 1446 1447 1447 1447 1449 1452 1452 1455 1457 1459 1462 1464 1468 1470 1474 1477 1479 1483 1487 1492 1496 1500 1503 1508 1512 1515 1515
1464 1466 1462 1470 1458 1449 1445 1448 1446 1447 1445 1450 1448 1445 1445 1447 1447 1440 1441 1442 1442 1444 1447 1448 1451 1452 1455 1457 1460 1464 1467 1469 1471 1475 1479 1485 1488 1493 1496 1500 1503 1507 1509 1511
1463 1463 1460 1459 1455 1452 1450 1450 1449 1450 1451 1450 1447 1445 1444 1445 1443 1438 1438 1438 1436 1437 1438 1440 1443 1446 1449 1451 1454 1458 1462 1465 1470 1473 1477 1481 1484 1488 1492 1496 1500 1503 1505 1506
1464 1461 1456 1458 1455 1452 1450 1451 1449 1450 1449 1447 1446 1445 1443 1442 1437 1433 1432 1431 1432 1431 1431 1433 1437 1440 1443 1446 1449 1454 1458 1462 1467 1470 1473 1476 1480 1483 1487 1490 1492 1497 1497 1498
1463 1455 1454 1454 1446 1444 1445 1447 1447 1448 1448 1446 1443 1441 1439 1436 1433 1428 1429 1428 1427 1427 1427 1428 1431 1434 1438 1442 1446 1450 1454 1459 1462 1465 1469 1473 1475 1478 1481 1484 1486 1491 1491 1495
1457 1457 1454 1452 1447 1446 1446 1445 1443 1442 1444 1444 1442 1440 1436 1433 1430 1427 1426 1427 1426 1424 1424 1426 1428 1431 1434 1438 1442 1448 1453 1456 1459 1462 1466 1469 1471 1472 1477 1480 1482 1486 1488 1489
1452 1454 1451 1449 1446 1445 1443 1442 1441 1439 1440 1438 1438 1438 1435 1432 1431 1430 1429 1427 1425 1423 1424 1426 1428 1431 1433 1438 1444 1447 1451 1454 1458 1460 1463 1468 1468 1473 1473 1477 1480 1482 1484 1486
1449 1446 1446 1440 1440 1441 1439 1439 1437 1436 1438 1437 1437 1435 1434 1433 1431 1431 1431 1428 1425 1424 1426 1428 1430 1432 1436 1439 1443 1447 1448 1453 1457 1460 1463 1465 1467 1470 1472 1472 1475 1477 1478 1479
Wind_Speed
9 6 14 18 16 0 14 18 16 17 6 5 14 15 9 15 16 18 21 22 24 26 22 23 28 29 28 27 25 25 24 25 24 24 23 22 20 16 15 13 12 12 12 10
5 15 26 24 18 6 15 26 16 5 4 4 4 13 5 13 15 24 25 25 26 24 23 28 29 30 30 29 29 28 27 26 25 25 23 22 19 19 18 15 15 14 12 10
12 6 15 16 13 11 15 21 19 17 8 3 2 12 11 9 13 13 19 23 24 26 26 27 31 32 31 33 32 31 30 30 28 28 27 26 25 25 21 17 15 15 12 10
5 8 19 15 13 12 9 9 17 16 17 11 3 11 21 20 15 15 23 23 28 27 27 25 32 33 34 33 32 32 32 31 31 32 30 30 30 26 20 16 16 15 11 10
2 8 17 18 14 8 4 7 8 6 5 6 6 7 18 13 21 19 23 27 27 28 30 32 34 35 33 32 32 33 34 34 34 34 33 33 30 25 19 16 16 14 13 12
4 2 2 2 7 4 8 15 10 7 4 4 15 16 18 13 16 21 23 28 29 29 32 33 33 34 34 34 34 34 34 36 37 36 35 34 30 26 22 18 15 16 15 13
2 3 4 4 10 5 3 19 4 3 4 7 10 10 17 6 14 15 24 32 33 28 32 34 35 35 36 36 34 33 34 37 37 35 34 31 29 25 17 17 15 16 15 15
4 2 3 2 5 9 16 12 7 8 7 6 2 12 10 18 14 12 8 13 23 28 32 34 33 34 35 32 31 30 30 32 33 32 30 28 28 22 21 17 17 16 16 16
5 2 2 3 3 14 6 9 4 5 2 3 7 6 9 7 9 12 12 10 13 25 29 28 31 32 31 30 28 28 27 26 26 27 27 27 25 23 20 19 18 18 19 18
5 6 1 0 4 1 9 10 3 2 7 7 4 9 8 6 12 10 10 18 14 15 20 21 23 24 25 26 26 25 24 23 24 25 25 23 22 20 20 20 20 20 20 20
4 3 3 1 4 8 6 6 2 3 0 3 3 4 8 14 6 12 14 15 15 16 17 17 19 22 24 25 24 25 25 25 24 23 22 21 22 22 21 21 21 21 21 21
2 4 4 2 2 3 7 10 9 7 7 2 1 3 1 1 2 2 4 12 15 17 17 17 19 21 22 24 25 26 25 24 23 23 22 22 22 22 21 22 23 22 22 21
4 3 5 4 2 1 4 3 12 1 3 8 4 1 3 2 4 4 5 8 14 16 18 18 18 20 23 25 26 26 24 24 24 23 23 22 22 22 23 24 24 24 23 20
5 2 2 4 0 6 8 9 15 9 5 5 10 6 2 3 4 0 2 7 13 17 18 18 17 17 20 23 23 24 24 24 24 24 22 22 22 22 23 24 25 24 22 21
2 2 1 3 2 0 6 17 18 20 18 12 8 13 3 2 1 2 2 7 12 17 20 20 18 20 21 22 23 23 23 24 24 23 22 22 22 23 25 26 25 24 23 21
1 1 2 3 4 1 3 9 19 24 20 20 3 8 3 2 3 4 6 9 13 17 20 22 23 24 23 22 22 24 24 24 23 23 23 23 24 26 26 26 25 25 22 20
3 4 3 3 3 3 5 10 15 12 13 17 18 11 3 3 7 13 13 12 13 16 19 21 23 21 21 22 22 23 21 22 24 24 24 25 26 26 26 25 26 25 22 20
4 4 1 2 2 5 1 1 5 16 13 17 14 10 12 18 28 26 21 15 21 19 16 17 17 18 19 18 20 21 22 23 23 23 25 26 27 27 26 27 26 24 22 20
3 2 2 3 3 5 2 2 5 6 3 3 14 13 18 16 13 22 24 26 26 22 13 10 16 18 18 19 22 24 25 24 23 25 25 26 26 26 27 27 27 25 22 19
2 1 1 2 3 4 1 2 1 1 3 3 3 3 5 5 6 10 9 15 23 24 25 21 21 18 19 21 22 25 27 25 25 23 23 24 25 25 26 26 26 23 21 20
2 2 3 4 3 5 2 4 1 3 1 5 3 3 3 3 7 12 13 8 9 16 18 22 23 27 17 22 23 25 25 24 20 19 20 22 23 23 24 25 25 22 22 23
4 4 2 2 3 6 2 3 2 2 3 4 4 6 7 9 11 10 10 11 14 14 15 19 26 28 25 25 22 21 23 21 18 19 20 21 22 23 24 25 25 25 26 27
3 3 2 5 3 5 9 7 3 2 5 7 10 11 11 12 12 9 7 7 11 9 8 10 16 21 23 23 23 22 22 20 20 19 19 19 20 22 23 24 25 26 26 28
3 4 3 1 3 4 7 10 6 8 9 8 13 12 11 13 11 9 6 5 5 7 7 8 9 16 19 22 23 22 22 20 18 16 17 18 20 20 22 23 22 23 24 25
1 4 4 4 5 6 16 20 16 10 9 9 9 11 12 13 8 6 4 3 2 5 9 10 10 14 19 22 23 22 20 17 16 16 15 14 13 15 15 16 17 18 19 21
9 6 5 4 6 4 7 13 15 20 17 10 9 6 6 12 8 5 4 4 5 9 12 14 17 19 22 23 22 20 18 16 13 12 12 11 11 11 12 12 14 16 18 21
Wind_Direction
138 135 194 188 190 129 212 193 199 212 105 190 213 220 208 191 201 203 205 200 200 206 202 203 204 204 204 206 208 209 209 212 212 213 215 221 227 234 242 253 266 274 280 284
140 203 207 190 178 206 194 188 197 55 79 182 216 232 229 199 214 206 206 207 207 207 204 208 208 209 209 211 212 214 216 218 218 221 226 229 233 237 242 252 268 272 266 271
173 177 155 163 168 176 204 189 173 199 173 58 306 241 227 227 220 215 222 219 218 212 211 210 211 214 215 216 216 218 219 221 222 224 227 229 230 234 238 249 252 256 250 258
110 146 147 154 172 177 190 226 168 142 162 202 217 243 218 214 213 211 222 217 219 217 218 215 216 218 220 221 222 223 223 225 226 228 231 235 239 241 241 243 251 251 244 247
84 161 161 163 181 179 188 138 131 110 114 79 212 242 229 206 221 212 219 221 222 219 218 220 221 223 225 224 225 226 225 227 229 232 233 237 241 242 236 245 240 247 237 235
72 31 34 36 121 166 155 118 71 45 45 223 196 215 228 206 214 216 220 223 223 220 220 223 227 226 228 228 228 228 229 229 230 230 232 235 239 239 233 244 236 243 231 231
39 9 317 206 106 46 213 132 122 134 188 233 207 207 231 190 217 217 216 216 219 218 219 220 222 223 225 226 227 228 229 230 230 228 229 230 231 227 241 239 240 235 231 227
135 148 174 202 138 170 187 165 161 178 199 183 119 230 227 230 222 211 229 228 219 218 220 221 223 225 227 226 225 226 227 226 225 225 223 222 227 229 232 231 234 226 225 222
134 90 2 339 97 161 180 208 62 93 34 190 196 244 263 218 216 215 217 217 216 211 216 219 223 226 226 224 223 223 222 218 216 215 212 217 221 226 232 229 223 221 221 218
149 112 322 64 95 277 196 150 143 181 160 213 189 243 223 191 222 212 211 220 212 207 207 211 215 216 212 209 210 208 205 207 208 209 213 217 223 225 226 224 224 221 217 214
110 73 134 153 217 167 162 180 212 106 344 238 180 231 201 209 214 207 208 211 206 210 203 204 205 202 199 197 198 199 200 202 205 211 215 218 222 221 221 220 218 217 216 213
103 107 133 112 353 306 208 183 179 196 183 234 312 240 106 293 9 68 175 205 209 208 200 194 194 195 193 194 198 201 202 205 209 215 219 222 222 220 220 217 214 213 214 211
156 135 120 129 152 353 219 205 209 51 81 206 186 163 28 349 258 206 198 198 194 193 193 191 189 190 193 198 202 204 205 209 213 215 217 218 218 218 216 213 213 213 211 210
69 145 226 192 54 136 185 190 210 188 206 165 232 256 220 224 293 304 173 183 181 190 195 196 193 194 200 203 205 207 206 209 213 214 214 216 217 216 213 213 214 213 209 213
94 128 31 53 12 221 194 179 196 210 219 222 213 222 211 168 334 305 161 179 194 198 202 207 207 210 210 206 203 202 205 209 211 213 214 216 214 211 211 213 213 210 209 215
182 80 95 12 10 327 210 201 199 210 216 229 280 242 321 310 236 243 232 207 217 220 219 215 215 215 212 206 203 204 206 208 213 214 214 213 209 209 210 213 211 210 211 218
130 141 158 162 322 307 264 210 208 210 222 221 229 232 275 275 254 247 228 215 230 234 225 222 219 213 208 207 205 207 205 208 212 212 208 206 207 210 211 212 211 211 216 225
149 140 90 121 182 231 34 106 219 215 224 225 241 224 222 228 247 261 263 257 245 244 229 236 221 212 211 207 207 204 205 208 209 207 205 206 209 211 212 214 213 216 222 232
167 159 131 189 220 314 248 213 155 164 223 280 244 246 243 251 283 270 261 260 259 251 242 238 230 221 215 211 209 204 203 206 208 209 207 210 212 214 215 215 215 220 228 237
234 51 166 161 202 227 34 6 308 359 246 5 360 357 277 195 241 261 264 256 258 256 246 244 231 217 211 211 209 207 206 206 212 210 211 213 216 218 220 220 220 226 234 244
170 167 210 179 211 284 317 310 96 164 85 341 342 1 5 214 242 273 279 273 272 248 237 227 220 212 220 212 206 206 207 212 216 214 212 216 219 222 224 223 225 232 240 247
205 187 184 189 200 241 183 135 193 338 293 287 303 342 323 306 307 300 293 247 254 252 240 227 221 222 221 210 208 212 210 207 206 208 212 214 218 221 221 222 225 234 241 247
259 202 211 216 229 172 163 145 140 26 316 335 308 321 329 334 329 318 304 271 248 258 242 222 219 219 218 214 214 214 202 198 199 204 210 213 216 219 221 223 229 237 245 255
238 196 219 329 350 259 231 192 218 293 282 320 348 352 344 335 337 331 307 289 249 235 219 199 199 199 200 196 189 181 186 187 191 196 205 210 213 215 219 224 231 243 253 261
244 159 206 254 256 272 244 241 243 247 265 281 305 321 349 344 341 330 293 257 213 182 175 173 166 177 179 172 170 170 173 177 182 186 191 198 201 209 216 228 240 249 257 265
190 188 200 237 234 236 270 248 262 243 251 255 277 281 329 338 326 327 276 203 158 151 156 156 157 160 158 159 163 163 163 164 167 179 189 196 204 215 226 237 249 259 266 274